Location: Long Geng
(2.6167°N, 114.1333°E)
Time: 00:32:43
(UTC+00:00)

Cosmos 1741 Rocket - Pass Details

Date: 14 May 2021
Orbit: 762 x 782 km, 74.0° (Epoch: 19 June)

Event Time Altitude Azimuth Distance (km) Brightness Sun altitude
Rises 21:15:48 0° 339° (NNW) 3,213 7.2 -14.2°
Reaches altitude 10° 21:18:12 10° 335° (NNW) 2,291 6.4 -13.7°
Maximum altitude 21:23:16 55° 258° (WSW) 913 4.0 -12.5°
Drops below altitude 10° 21:28:24 10° 181° (S) 2,311 6.3 -11.3°
Sets 21:30:50 0° 176° (S) 3,242 7.1 -10.7°
